Flag for Canada Weather past 2 weeks in Steinbach, Manitoba, Canada

Now
1 °F

Frigid.


Feels Like: -9 °F
Forecast: -10 / 6 °F
Wind: 5 mph from West

Location: Winnipeg The Forks

Current Time: Feb 27, 2015 at 1:10:25 AM

Latest Report: Feb 27, 2015 at 12:00 AM


Visibility: N/A

Pressure: 30.48 "Hg

Humidity: 70%

Dew point: -7 °F

Location of SteinbachLocation

Historic Weather in Steinbach — Graph

°F

Steinbach temperature yesterday

Maximum temperature yesterday: 7 °F (at 4:00 PM)
Minimum temperature yesterday: -11 °F (at 6:00 AM)
Average temperature yesterday: -1 °F

Past Weeks' High & Low Weather Summary

 TemperatureHumidityPressure
High27 °F (Feb 23, 10:00 PM)91% (Feb 24, 12:00 AM)30.83 "Hg (Feb 24, 12:00 AM)
Low-21 °F (Feb 22, 8:00 AM)46% (Feb 22, 5:00 PM)29.67 "Hg (Feb 23, 11:00 PM)
Average-2 °F67%30.31 "Hg
* Reported Feb 11 11:00 PM — Feb 26 11:00 PM, Steinbach, Weather by CustomWeather, © 2015

Note: Actual official high and low records may vary slightly from our data, if they occured in-between our weather recording intervals... More about our weather records

Advertising

Steinbach weather history for previous 24 hours

 ConditionsComfort  
Time TempWeatherWind HumidityBarometerVisibility
11:00 PM
Thu, Feb 26
3 °FFrigid.3 mph63%30.50 "HgN/A
10:00 PM6 °FFrigid.2 mph57%30.51 "HgN/A
9:00 PM6 °FFrigid.3 mph63%30.52 "HgN/A
8:00 PM6 °FFrigid.2 mph59%30.53 "HgN/A
7:00 PM6 °FFrigid.3 mph57%30.55 "HgN/A
6:00 PM6 °FFrigid.3 mph55%30.55 "HgN/A
5:00 PM7 °FFrigid.6 mph52%30.55 "HgN/A
4:00 PM7 °FFrigid.5 mph51%30.56 "HgN/A
3:00 PM6 °FFrigid.5 mph51%30.56 "HgN/A
2:00 PM4 °FFrigid.3 mph56%30.57 "HgN/A
1:00 PM4 °FFrigid.5 mph53%30.59 "HgN/A
12:00 PM-1 °FFrigid.3 mph60%30.60 "HgN/A
11:00 AM-4 °FFrigid.3 mph61%30.61 "HgN/A
10:00 AM-6 °FFrigid.3 mph64%30.61 "HgN/A
9:00 AM-8 °FFrigid.3 mph67%30.61 "HgN/A
8:00 AMN/A3 mphN/A30.60 "HgN/A
7:00 AM-11 °FExtremely cold.2 mph69%30.60 "HgN/A
6:00 AM-11 °FExtremely cold.2 mph70%30.60 "HgN/A
5:00 AM-11 °FExtremely cold.2 mph68%30.59 "HgN/A
4:00 AM-11 °FExtremely cold.3 mph67%30.58 "HgN/A
3:00 AM-10 °FExtremely cold.3 mph67%30.58 "HgN/A
2:00 AMN/A3 mphN/A30.58 "HgN/A
1:00 AM-9 °FFrigid.5 mph62%30.57 "HgN/A
Weather by CustomWeather, © 2015

See weather overviewHow to use our weather pages